sat.trackr.live / text

‹ back to catalog

HULIANWANG DIGUI-154

NORAD 67530 · 2026-013J

PAYLOAD ACTIVE UNKNOWN

§ Identity

Operator
Country
PRC
Launch date
2026-01-19
Launch site
WSC
Launch vehicle
Mass (kg)
RCS (m²)

External: N2YO · Heavens-Above · Gunter

§ Orbital elements

Epoch: 2026-05-25T03:53:55.339584Z

Period
108.33 min
Inclination
50.0069°
Eccentricity
0.0000919
Mean motion
13.29328166 rev/d
Perigee alt
1,148.6 km
Apogee alt
1,150.0 km
Semi-major
7,527.4 km
B*
7.5790e-5
RAAN
77.8665°
Arg perigee
26.8879°
Mean anomaly
333.2040°
Rev number
1,698

§ Raw data

HULIANWANG DIGUI-1541 67530U 26013J   26145.16244606 -.00000089  00000+0  75790-4 0  99992 67530  50.0069  77.8665 0000919  26.8879 333.2040 13.29328166 16981

JSON: /api/v1/satellites/67530 · /tle

For live sub-satellite position, see the globe view (requires WebGL).

§ Visibility from observer

Set your observer location to see the next 7 days of passes ≥ 10°. The values pass through the URL so the page stays shareable.

No JS? Fill the form by hand. The geolocation button needs JavaScript.